Flag for Brazil Weather past 2 weeks in Campo Grande, Mato Grosso Do Sul, Brazil

Now
54 °F

Passing clouds.


Feels Like: 52 °F
Forecast: 53 / 59 °F
Wind: 7 mph from Northeast

Location: Campo Grande Aeroporto

Current Time: Jul 26, 2014 at 3:36:17 AM

Latest Report: Jul 26, 2014 at 3:00 AM


Visibility: N/A

Pressure: 30.07 "Hg

Humidity: 94%

Dew point: 52 °F

Location of Campo GrandeLocation

Historic Weather in Campo Grande — Graph

°F

Campo Grande temperature yesterday

Maximum temperature yesterday: 61 °F (at 2:00 PM)
Minimum temperature yesterday: 45 °F (at 5:00 AM)
Average temperature yesterday: 51 °F

Past Weeks' High & Low Weather Summary

 TemperatureHumidityPressure
High86 °F (Jul 17, 1:00 PM)100% (Jul 18, 2:00 AM)30.24 "Hg (Jul 18, 2:00 AM)
Low45 °F (Jul 25, 5:00 AM)30% (Jul 21, 4:00 PM)29.89 "Hg (Jul 23, 5:00 PM)
Average67 °F65%30.11 "Hg
* Reported Jul 11 2:00 AM — Jul 26 2:00 AM, Campo Grande, Weather by CustomWeather, © 2014

Note: Actual official high and low records may vary slightly from our data, if they occured in-between our weather recording intervals... More about our weather records

Advertising

Campo Grande weather history for previous 24 hours

 ConditionsComfort  
Time TempWeatherWind HumidityBarometerVisibility
2:00 AM
Jul 26
54 °FPartly cloudy.7 mph88%30.07 "HgN/A
1:00 AM52 °FPartly cloudy.6 mph94%30.09 "HgN/A
12:00 AM52 °FPartly cloudy.7 mph94%30.12 "HgN/A
11:00 PM
Jul 25
52 °FPartly cloudy.7 mph94%30.12 "HgN/A
10:00 PM52 °FPartly cloudy.6 mph94%30.15 "HgN/A
9:00 PM52 °FPassing clouds.7 mph94%30.12 "HgN/A
8:00 PM52 °FPassing clouds.5 mph94%30.12 "HgN/A
7:00 PM52 °FLight rain. Passing clouds.6 mph94%30.09 "Hg6 mi
6:00 PM54 °FPassing clouds.7 mph82%30.09 "HgN/A
5:00 PM54 °FScattered showers. Passing clouds.7 mph82%30.07 "HgN/A
4:00 PM59 °FScattered showers. Partly sunny.7 mph68%30.07 "HgN/A
3:00 PM59 °FScattered clouds.8 mph68%30.07 "HgN/A
2:00 PM61 °FPassing clouds.5 mph63%30.07 "HgN/A
1:00 PM59 °FPassing clouds.5 mph63%30.12 "HgN/A
12:00 PM57 °FPassing clouds.8 mph67%30.12 "HgN/A
11:00 AM54 °FScattered clouds.10 mph77%30.15 "HgN/A
10:00 AM52 °FScattered clouds.9 mph82%30.18 "HgN/A
9:00 AM48 °FPartly sunny.13 mph87%30.18 "HgN/A
8:00 AM46 °FBroken clouds.12 mph87%30.18 "HgN/A
7:00 AM45 °FPartly sunny.7 mph93%30.15 "HgN/A
6:00 AM45 °FPartly sunny.7 mph93%30.12 "HgN/A
5:00 AM45 °FPartly cloudy.9 mph93%30.12 "HgN/A
4:00 AM46 °FPartly cloudy.9 mph87%30.12 "HgN/A
3:00 AM48 °FPartly cloudy.6 mph94%30.12 "HgN/A
Weather by CustomWeather, © 2014

See weather overviewHow to use our weather pages